Weather History for KDYT - September, 2013

Change the Weather History Date:

Sunday, September 22, 2013

  Actual Average Record
Temperature  
Mean Temperature 50 °F -  
Max Temperature 59 °F 62 °F 80 °F (1958)
Min Temperature 42 °F 42 °F 25 °F (1974)
Degree Days  
Heating Degree Days 14    
Moisture  
Dew Point 45 °F    
Average Humidity 77    
Maximum Humidity 88    
Minimum Humidity 54    
Precipitation  
Precipitation 0.00 in - - ()
Sea Level Pressure  
Sea Level Pressure 30.00 in    
Wind  
Wind Speed 10 mph (ESE)    
Max Wind Speed 28 mph    
Max Gust Speed 31 mph    
Visibility 10 miles    
Events      
Averages and records for this station are not official NWS values.
T = Trace of Precipitation, MM = Missing Value Source: NWS Daily Summary

Daily Weather History Graph

Daily Weather History Graph

Search for Another Location

Airport or City:

Trip Planner

Search our weather history database for the weather conditions in past years. The results will help you decide how hot, cold, wet, or windy it might be!

Date:

Astronomy

Sep. 22, 2013 Rise Set
Actual Time 6:55 AM CDT 7:05 PM CDT
Civil Twilight 6:25 AM CDT 7:35 PM CDT
Nautical Twilight 5:49 AM CDT 8:10 PM CDT
Astronomical Twilight 5:12 AM CDT 8:47 PM CDT
Moon 8:40 PM CDT (9/22) 10:30 AM CDT (9/22)
Length of Visible Light 13h 10m
Length of Day
12h 09m
Waning Gibbous, 88% of the Moon is Illuminated
Sep 22
Waning Gibbous
Sep 26
Last Quarter
Oct 4
New
Oct 11
First Quarter
Oct 18
Full

Hourly Weather History & Observations

Time (CDT) Temp. Windchill Dew Point Humidity Pressure Visibility Wind Dir Wind Speed Gust Speed Precip Events Conditions
12:14 AM 50.0 °F - 42.8 °F 76% 30.00 in 10.0 mi SE 8.1 mph - N/A   Clear
12:33 AM 50.0 °F - 42.8 °F 76% 30.00 in 10.0 mi SE 6.9 mph - N/A   Clear
12:54 AM 48.2 °F - 42.8 °F 82% 30.00 in 10.0 mi SE 6.9 mph - N/A   Clear
1:14 AM 48.2 °F - 42.8 °F 82% 30.01 in 10.0 mi SE 4.6 mph - N/A   Clear
1:33 AM 48.2 °F - 42.8 °F 82% 30.01 in 10.0 mi South 6.9 mph - N/A   Clear
1:53 AM 48.2 °F - 42.8 °F 82% 30.01 in 10.0 mi SE 4.6 mph - N/A   Clear
2:14 AM 48.2 °F - 42.8 °F 82% 30.01 in 10.0 mi SE 6.9 mph - N/A   Clear
2:33 AM 48.2 °F - 42.8 °F 82% 30.01 in 10.0 mi SE 6.9 mph - N/A   Clear
2:53 AM 48.2 °F - 42.8 °F 82% 30.01 in 10.0 mi South 6.9 mph - N/A   Clear
3:14 AM 48.2 °F - 42.8 °F 82% 30.01 in 10.0 mi South 6.9 mph - N/A   Clear
3:33 AM 46.4 °F 44.3 °F 42.8 °F 87% 30.01 in 10.0 mi South 4.6 mph - N/A   Clear
3:53 AM 46.4 °F 44.3 °F 42.8 °F 87% 30.02 in 10.0 mi South 4.6 mph - N/A   Clear
4:13 AM 46.4 °F 43.5 °F 41.0 °F 81% 30.02 in 10.0 mi South 5.8 mph - N/A   Clear
4:33 AM 44.6 °F 41.4 °F 41.0 °F 87% 30.02 in 10.0 mi South 5.8 mph - N/A   Clear
4:54 AM 44.6 °F 43.1 °F 39.2 °F 81% 30.02 in 10.0 mi South 3.5 mph - N/A   Clear
5:13 AM 44.6 °F 43.1 °F 39.2 °F 81% 30.03 in 10.0 mi SSE 3.5 mph - N/A   Clear
5:33 AM 44.6 °F 43.1 °F 39.2 °F 81% 30.03 in 10.0 mi South 3.5 mph - N/A   Clear
5:54 AM 44.6 °F 42.2 °F 39.2 °F 81% 30.03 in 10.0 mi South 4.6 mph - N/A   Clear
6:13 AM 42.8 °F 40.1 °F 39.2 °F 87% 30.03 in 10.0 mi South 4.6 mph - N/A   Clear
6:33 AM 44.6 °F 41.4 °F 39.2 °F 81% 30.03 in 10.0 mi South 5.8 mph - N/A   Clear
6:54 AM 44.6 °F 42.2 °F 39.2 °F 81% 30.04 in 10.0 mi SSW 4.6 mph - N/A   Clear
7:13 AM 44.6 °F 42.2 °F 39.2 °F 81% 30.04 in 10.0 mi South 4.6 mph - N/A   Clear
7:33 AM 44.6 °F 41.4 °F 39.2 °F 81% 30.04 in 10.0 mi South 5.8 mph - N/A   Clear
7:53 AM 44.6 °F 40.7 °F 39.2 °F 81% 30.05 in 10.0 mi South 6.9 mph - N/A   Clear
8:13 AM 46.4 °F 42.9 °F 39.2 °F 76% 30.05 in 10.0 mi South 6.9 mph - N/A   Clear
8:34 AM 48.2 °F - 41.0 °F 76% 30.05 in 10.0 mi South 9.2 mph - N/A   Clear
8:53 AM 48.2 °F - 41.0 °F 76% 30.05 in 10.0 mi South 10.4 mph - N/A   Clear
9:13 AM 51.8 °F - 41.0 °F 67% 30.06 in 10.0 mi SSE 8.1 mph - N/A   Clear
9:34 AM 51.8 °F - 39.2 °F 62% 30.05 in 10.0 mi SSE 12.7 mph - N/A   Clear
9:53 AM 53.6 °F - 39.2 °F 58% 30.05 in 10.0 mi SSE 10.4 mph - N/A   Clear
10:13 AM 53.6 °F - 39.2 °F 58% 30.05 in 10.0 mi SSE 8.1 mph - N/A   Clear
10:34 AM 55.4 °F - 39.2 °F 54% 30.05 in 10.0 mi SSE 8.1 mph - N/A   Clear
10:53 AM 55.4 °F - 39.2 °F 54% 30.05 in 10.0 mi SSE 8.1 mph - N/A   Clear
11:13 AM 57.2 °F - 41.0 °F 55% 30.04 in 10.0 mi SE 6.9 mph - N/A   Clear
11:34 AM 57.2 °F - 42.8 °F 59% 30.04 in 10.0 mi ESE 6.9 mph - N/A   Clear
11:53 AM 59.0 °F - 44.6 °F 59% 30.03 in 10.0 mi East 6.9 mph - N/A   Clear
12:13 PM 57.2 °F - 44.6 °F 63% 30.02 in 10.0 mi ENE 10.4 mph - N/A   Clear
12:34 PM 57.2 °F - 46.4 °F 67% 30.02 in 10.0 mi ENE 13.8 mph - N/A   Clear
12:53 PM 57.2 °F - 46.4 °F 67% 30.01 in 10.0 mi NE 13.8 mph - N/A   Clear
1:13 PM 57.2 °F - 48.2 °F 72% 30.00 in 10.0 mi NE 16.1 mph - N/A   Clear
1:34 PM 57.2 °F - 48.2 °F 72% 29.99 in 10.0 mi NE 18.4 mph - N/A   Clear
1:53 PM 57.2 °F - 48.2 °F 72% 29.98 in 10.0 mi NE 19.6 mph - N/A   Clear
2:13 PM 57.2 °F - 48.2 °F 72% 29.98 in 10.0 mi NE 18.4 mph - N/A   Clear
2:34 PM 57.2 °F - 48.2 °F 72% 29.98 in 10.0 mi NE 20.7 mph - N/A   Clear
2:53 PM 57.2 °F - 48.2 °F 72% 29.97 in 10.0 mi NE 23.0 mph - N/A   Clear
3:13 PM 57.2 °F - 48.2 °F 72% 29.97 in 10.0 mi NE 23.0 mph 26.5 mph N/A   Clear
3:34 PM 57.2 °F - 48.2 °F 72% 29.96 in 10.0 mi NE 24.2 mph - N/A   Clear
3:53 PM 57.2 °F - 48.2 °F 72% 29.96 in 10.0 mi NE 21.9 mph 26.5 mph N/A   Clear
4:13 PM 57.2 °F - 50.0 °F 77% 29.95 in 10.0 mi NE 23.0 mph - N/A   Clear
4:34 PM 57.2 °F - 51.8 °F 82% 29.94 in 10.0 mi NE 24.2 mph 27.6 mph N/A   Clear
4:53 PM 57.2 °F - 50.0 °F 77% 29.94 in 10.0 mi NE 25.3 mph 29.9 mph N/A   Clear
5:13 PM 57.2 °F - 50.0 °F 77% 29.94 in 10.0 mi ENE 27.6 mph 31.1 mph N/A   Clear
5:33 PM 55.4 °F - 51.8 °F 88% 29.94 in 10.0 mi NE 26.5 mph 29.9 mph N/A   Clear
5:53 PM 55.4 °F - 51.8 °F 88% 29.94 in 10.0 mi ENE 26.5 mph - N/A   Clear
6:13 PM 55.4 °F - 51.8 °F 88% 29.94 in 10.0 mi ENE 26.5 mph 31.1 mph N/A   Clear
6:34 PM 55.4 °F - 51.8 °F 88% 29.94 in 10.0 mi ENE 27.6 mph 31.1 mph N/A   Clear
6:53 PM 55.4 °F - 51.8 °F 88% 29.94 in 10.0 mi ENE 24.2 mph - N/A   Clear
7:13 PM 55.4 °F - 51.8 °F 88% 29.94 in 10.0 mi ENE 24.2 mph - N/A   Clear
7:34 PM 57.2 °F - 51.8 °F 82% 29.95 in 10.0 mi ENE 21.9 mph - N/A   Clear
7:53 PM 57.2 °F - 50.0 °F 77% 29.96 in 10.0 mi East 18.4 mph 23.0 mph N/A   Clear
8:14 PM 55.4 °F - 50.0 °F 82% 29.97 in 10.0 mi East 15.0 mph 20.7 mph N/A   Clear
8:33 PM 55.4 °F - 50.0 °F 82% 29.97 in 10.0 mi East 11.5 mph - N/A   Clear
8:54 PM 55.4 °F - 50.0 °F 82% 29.97 in 10.0 mi East 13.8 mph - N/A   Clear
9:13 PM 55.4 °F - 50.0 °F 82% 29.97 in 10.0 mi East 10.4 mph 16.1 mph N/A   Clear
9:34 PM 55.4 °F - 50.0 °F 82% 29.97 in 10.0 mi East 9.2 mph - N/A   Clear
9:53 PM 55.4 °F - 50.0 °F 82% 29.97 in 10.0 mi East 12.7 mph - N/A   Clear
10:13 PM 55.4 °F - 50.0 °F 82% 29.97 in 10.0 mi East 9.2 mph - N/A   Clear
10:33 PM 55.4 °F - 50.0 °F 82% 29.96 in 10.0 mi ENE 12.7 mph - N/A   Clear
10:53 PM 55.4 °F - 51.8 °F 88% 29.96 in 10.0 mi ENE 11.5 mph - N/A   Clear
11:14 PM 55.4 °F - 51.8 °F 88% 29.95 in 10.0 mi ENE 10.4 mph - N/A   Clear
11:33 PM 55.4 °F - 51.8 °F 88% 29.95 in 10.0 mi East 8.1 mph - N/A   Clear
11:53 PM 55.4 °F - 50.0 °F 82% 29.95 in 10.0 mi East 9.2 mph - N/A   Clear